![]() |
EMODnet Physics ERDDAP
Easier access to scientific data |
log in|
Brought to you by EMODnet Physics |
| Dataset Title: | NDBC - Collection of dew point temperature (DEWT) TimeSeries - IN SITU MultiPointTimeSeriesObservation
|
| Institution: | NDBC (Dataset ID: TS_DEWT_NDBC) |
| Information: | Summary
| License
| FGDC
| ISO 19115
| Metadata
| Background
| Subset
| Data Access Form
| Make a graph
|
| Name | Last modified | Size | Description | |
|---|---|---|---|---|
| Parent Directory | - | - | ||
| MVXA2_TS_DEWT_012018.nc | 24-Dec-2024 12:13 | 451122 | ||
| MVXA2_TS_DEWT_012019.nc | 24-Dec-2024 12:17 | 2848634 | ||
| MVXA2_TS_DEWT_012020.nc | 24-Dec-2024 12:20 | 428992 | ||
| MVXA2_TS_DEWT_012021.nc | 24-Dec-2024 12:24 | 428651 | ||
| MVXA2_TS_DEWT_012022.nc | 24-Dec-2024 12:27 | 428652 | ||
| MVXA2_TS_DEWT_012023.nc | 24-Dec-2024 12:31 | 428289 | ||
| MVXA2_TS_DEWT_012025.nc | 07-Feb-2025 10:32 | 429013 | ||
| MVXA2_TS_DEWT_012026.nc | 02-Feb-2026 16:49 | 448466 | ||
| MVXA2_TS_DEWT_022018.nc | 24-Dec-2024 12:13 | 446952 | ||
| MVXA2_TS_DEWT_022019.nc | 24-Dec-2024 12:17 | 428667 | ||
| MVXA2_TS_DEWT_022020.nc | 24-Dec-2024 12:20 | 428977 | ||
| MVXA2_TS_DEWT_022021.nc | 24-Dec-2024 12:24 | 447440 | ||
| MVXA2_TS_DEWT_022022.nc | 24-Dec-2024 12:27 | 447436 | ||
| MVXA2_TS_DEWT_022023.nc | 24-Dec-2024 12:31 | 446534 | ||
| MVXA2_TS_DEWT_022025.nc | 01-Mar-2025 05:28 | 437415 | ||
| MVXA2_TS_DEWT_022026.nc | 01-Mar-2026 05:27 | 446534 | ||
| MVXA2_TS_DEWT_032018.nc | 24-Dec-2024 12:13 | 448545 | ||
| MVXA2_TS_DEWT_032019.nc | 24-Dec-2024 12:17 | 448210 | ||
| MVXA2_TS_DEWT_032020.nc | 24-Dec-2024 12:21 | 449121 | ||
| MVXA2_TS_DEWT_032021.nc | 24-Dec-2024 12:24 | 447952 | ||
| MVXA2_TS_DEWT_032022.nc | 24-Dec-2024 12:28 | 447919 | ||
| MVXA2_TS_DEWT_032023.nc | 24-Dec-2024 12:31 | 448045 | ||
| MVXA2_TS_DEWT_032025.nc | 02-Apr-2025 04:03 | 448987 | ||
| MVXA2_TS_DEWT_032026.nc | 26-Mar-2026 06:18 | 428859 | ||
| MVXA2_TS_DEWT_042018.nc | 24-Dec-2024 12:14 | 447265 | ||
| MVXA2_TS_DEWT_042019.nc | 24-Dec-2024 12:17 | 446979 | ||
| MVXA2_TS_DEWT_042020.nc | 24-Dec-2024 12:21 | 429203 | ||
| MVXA2_TS_DEWT_042021.nc | 24-Dec-2024 12:24 | 447586 | ||
| MVXA2_TS_DEWT_042022.nc | 24-Dec-2024 12:28 | 448199 | ||
| MVXA2_TS_DEWT_042023.nc | 24-Dec-2024 12:32 | 445728 | ||
| MVXA2_TS_DEWT_042025.nc | 01-May-2025 06:12 | 429204 | ||
| MVXA2_TS_DEWT_052018.nc | 24-Dec-2024 12:14 | 448070 | ||
| MVXA2_TS_DEWT_052019.nc | 24-Dec-2024 12:18 | 446949 | ||
| MVXA2_TS_DEWT_052020.nc | 24-Dec-2024 12:21 | 447083 | ||
| MVXA2_TS_DEWT_052021.nc | 24-Dec-2024 12:25 | 449039 | ||
| MVXA2_TS_DEWT_052022.nc | 24-Dec-2024 12:28 | 448027 | ||
| MVXA2_TS_DEWT_052023.nc | 24-Dec-2024 12:32 | 448018 | ||
| MVXA2_TS_DEWT_052025.nc | 01-Jun-2025 08:28 | 447440 | ||
| MVXA2_TS_DEWT_062018.nc | 24-Dec-2024 12:14 | 429202 | ||
| MVXA2_TS_DEWT_062019.nc | 24-Dec-2024 12:18 | 428843 | ||
| MVXA2_TS_DEWT_062020.nc | 24-Dec-2024 12:22 | 448538 | ||
| MVXA2_TS_DEWT_062021.nc | 24-Dec-2024 12:25 | 447236 | ||
| MVXA2_TS_DEWT_062022.nc | 24-Dec-2024 12:29 | 4477299 | ||
| MVXA2_TS_DEWT_062023.nc | 24-Dec-2024 12:32 | 429636 | ||
| MVXA2_TS_DEWT_062025.nc | 01-Jul-2025 05:48 | 429587 | ||
| MVXA2_TS_DEWT_072018.nc | 24-Dec-2024 12:15 | 429644 | ||
| MVXA2_TS_DEWT_072019.nc | 24-Dec-2024 12:18 | 429481 | ||
| MVXA2_TS_DEWT_072020.nc | 24-Dec-2024 12:22 | 429664 | ||
| MVXA2_TS_DEWT_072021.nc | 24-Dec-2024 12:25 | 451010 | ||
| MVXA2_TS_DEWT_072022.nc | 24-Dec-2024 12:29 | 430060 | ||
| MVXA2_TS_DEWT_072023.nc | 24-Dec-2024 12:32 | 429675 | ||
| MVXA2_TS_DEWT_072025.nc | 01-Aug-2025 05:57 | 429141 | ||
| MVXA2_TS_DEWT_082018.nc | 24-Dec-2024 12:15 | 450571 | ||
| MVXA2_TS_DEWT_082019.nc | 24-Dec-2024 12:19 | 450002 | ||
| MVXA2_TS_DEWT_082020.nc | 24-Dec-2024 12:22 | 450895 | ||
| MVXA2_TS_DEWT_082021.nc | 24-Dec-2024 12:26 | 450977 | ||
| MVXA2_TS_DEWT_082022.nc | 24-Dec-2024 12:29 | 435274 | ||
| MVXA2_TS_DEWT_082023.nc | 24-Dec-2024 12:33 | 449359 | ||
| MVXA2_TS_DEWT_082025.nc | 01-Sep-2025 07:28 | 450681 | ||
| MVXA2_TS_DEWT_092018.nc | 24-Dec-2024 12:15 | 449482 | ||
| MVXA2_TS_DEWT_092019.nc | 24-Dec-2024 12:19 | 450797 | ||
| MVXA2_TS_DEWT_092020.nc | 24-Dec-2024 12:22 | 451645 | ||
| MVXA2_TS_DEWT_092021.nc | 24-Dec-2024 12:26 | 429884 | ||
| MVXA2_TS_DEWT_092022.nc | 24-Dec-2024 12:29 | 429892 | ||
| MVXA2_TS_DEWT_092023.nc | 24-Dec-2024 12:33 | 436924 | ||
| MVXA2_TS_DEWT_092025.nc | 01-Oct-2025 07:45 | 450853 | ||
| MVXA2_TS_DEWT_102018.nc | 24-Dec-2024 12:16 | 440342 | ||
| MVXA2_TS_DEWT_102019.nc | 24-Dec-2024 12:19 | 450595 | ||
| MVXA2_TS_DEWT_102020.nc | 24-Dec-2024 12:23 | 451222 | ||
| MVXA2_TS_DEWT_102021.nc | 24-Dec-2024 12:26 | 451770 | ||
| MVXA2_TS_DEWT_102022.nc | 24-Dec-2024 12:30 | 429891 | ||
| MVXA2_TS_DEWT_102023.nc | 24-Dec-2024 12:33 | 451043 | ||
| MVXA2_TS_DEWT_102025.nc | 01-Nov-2025 06:40 | 451796 | ||
| MVXA2_TS_DEWT_112018.nc | 24-Dec-2024 12:16 | 451032 | ||
| MVXA2_TS_DEWT_112019.nc | 24-Dec-2024 12:20 | 450849 | ||
| MVXA2_TS_DEWT_112020.nc | 24-Dec-2024 12:23 | 450410 | ||
| MVXA2_TS_DEWT_112021.nc | 24-Dec-2024 12:27 | 450946 | ||
| MVXA2_TS_DEWT_112022.nc | 24-Dec-2024 12:30 | 449908 | ||
| MVXA2_TS_DEWT_112023.nc | 24-Dec-2024 12:34 | 429888 | ||
| MVXA2_TS_DEWT_112024.nc | 17-Jan-2025 18:45 | 427543 | ||
| MVXA2_TS_DEWT_112025.nc | 01-Dec-2025 10:26 | 449681 | ||
| MVXA2_TS_DEWT_122017.nc | 24-Dec-2024 12:13 | 450285 | ||
| MVXA2_TS_DEWT_122018.nc | 24-Dec-2024 12:16 | 3182407 | ||
| MVXA2_TS_DEWT_122019.nc | 24-Dec-2024 12:20 | 429329 | ||
| MVXA2_TS_DEWT_122020.nc | 24-Dec-2024 12:23 | 429324 | ||
| MVXA2_TS_DEWT_122021.nc | 24-Dec-2024 12:27 | 429324 | ||
| MVXA2_TS_DEWT_122022.nc | 24-Dec-2024 12:30 | 429336 | ||
| MVXA2_TS_DEWT_122023.nc | 24-Dec-2024 12:34 | 429344 | ||
| MVXA2_TS_DEWT_122024.nc | 22-Jan-2025 19:09 | 450801 | ||
| MVXA2_TS_DEWT_122025.nc | 01-Jan-2026 04:50 | 429299 | ||